Time,TemperatureF,DewpointF,PressureIn,WindDirection,WindDirectionDegrees,WindSpeedMPH,WindSpeedGustMPH,Humidity,HourlyPrecipIn,Conditions,Clouds,dailyrainin,SoftwareType,DateUTC
2013-02-03 00:00:00,10.7,5.0,30.02,NE,43,0.0,-999.0,82,-99.99,,,0.00,ADS-WS1 bash script,2013-02-03 05:00:00,
2013-02-03 00:10:00,10.0,4.0,30.03,NW,313,0.0,-999.0,83,-99.99,,,0.00,ADS-WS1 bash script,2013-02-03 05:10:00,
2013-02-03 00:15:00,9.7,5.0,30.02,NW,306,0.0,-999.0,84,-99.99,,,0.00,ADS-WS1 bash script,2013-02-03 05:15:00,
2013-02-03 00:25:00,9.0,4.0,30.03,North,0,0.0,-999.0,85,-99.99,,,0.00,ADS-WS1 bash script,2013-02-03 05:25:00,
2013-02-03 00:35:00,8.6,4.0,30.02,North,0,0.0,-999.0,85,-99.99,,,0.00,ADS-WS1 bash script,2013-02-03 05:35:00,
2013-02-03 00:40:00,8.4,3.0,30.02,NNW,348,0.0,-999.0,85,-99.99,,,0.00,ADS-WS1 bash script,2013-02-03 05:40:00,
2013-02-03 00:45:00,8.2,3.0,30.02,North,0,0.0,-999.0,86,-99.99,,,0.00,ADS-WS1 bash script,2013-02-03 05:45:00,
2013-02-03 00:50:00,8.1,3.0,30.02,North,0,0.0,-999.0,86,-99.99,,,0.00,ADS-WS1 bash script,2013-02-03 05:50:00,
2013-02-03 00:55:00,8.1,4.0,30.02,NNW,344,0.0,-999.0,87,-99.99,,,0.00,ADS-WS1 bash script,2013-02-03 05:55:00,
2013-02-03 01:00:00,7.9,3.0,30.02,NNW,335,0.0,-999.0,85,-99.99,,,0.00,ADS-WS1 bash script,2013-02-03 06:00:00,
2013-02-03 01:05:00,7.7,3.0,30.01,WNW,302,0.0,-999.0,86,-99.99,,,0.00,ADS-WS1 bash script,2013-02-03 06:05:00,
2013-02-03 01:10:00,7.9,4.0,30.02,NW,313,0.0,-999.0,87,-99.99,,,0.00,ADS-WS1 bash script,2013-02-03 06:10:00,
2013-02-03 01:15:00,7.7,3.0,30.01,NW,313,0.0,-999.0,86,-99.99,,,0.00,ADS-WS1 bash script,2013-02-03 06:15:00,
2013-02-03 01:20:00,7.7,4.0,30.01,North,0,0.0,-999.0,88,-99.99,,,0.00,ADS-WS1 bash script,2013-02-03 06:20:00,
2013-02-03 01:25:00,7.7,4.0,30.01,NW,313,0.0,-999.0,87,-99.99,,,0.00,ADS-WS1 bash script,2013-02-03 06:25:00,
2013-02-03 01:30:00,7.9,4.0,30.01,NW,313,0.0,-999.0,87,-99.99,,,0.00,ADS-WS1 bash script,2013-02-03 06:30:00,
2013-02-03 01:35:00,8.1,4.0,30.01,NW,313,0.0,-999.0,87,-99.99,,,0.00,ADS-WS1 bash script,2013-02-03 06:35:00,
2013-02-03 01:40:00,8.1,4.0,30.01,NW,313,0.0,-999.0,87,-99.99,,,0.00,ADS-WS1 bash script,2013-02-03 06:40:00,
2013-02-03 01:45:00,8.2,4.0,30.01,NW,313,0.0,-999.0,88,-99.99,,,0.00,ADS-WS1 bash script,2013-02-03 06:45:00,
2013-02-03 01:50:00,8.4,4.0,30.01,NW,306,0.0,-999.0,88,-99.99,,,0.00,ADS-WS1 bash script,2013-02-03 06:50:00,
2013-02-03 02:00:00,8.6,5.0,30.00,NW,313,0.0,-999.0,87,-99.99,,,0.00,ADS-WS1 bash script,2013-02-03 07:00:00,
2013-02-03 02:05:00,8.8,5.0,30.00,NW,313,0.0,-999.0,87,-99.99,,,0.00,ADS-WS1 bash script,2013-02-03 07:05:00,
2013-02-03 02:15:00,8.8,4.0,29.99,NW,313,0.0,-999.0,86,-99.99,,,0.00,ADS-WS1 bash script,2013-02-03 07:15:00,
2013-02-03 02:20:00,8.8,5.0,29.99,NW,313,0.0,-999.0,87,-99.99,,,0.00,ADS-WS1 bash script,2013-02-03 07:20:00,
2013-02-03 02:25:00,8.8,5.0,29.99,NW,313,0.0,-999.0,87,-99.99,,,0.00,ADS-WS1 bash script,2013-02-03 07:25:00,
2013-02-03 02:30:00,8.8,5.0,30.00,NW,307,0.0,-999.0,87,-99.99,,,0.00,ADS-WS1 bash script,2013-02-03 07:30:00,
2013-02-03 02:35:00,8.8,4.0,29.99,NW,313,0.0,-999.0,85,-99.99,,,0.00,ADS-WS1 bash script,2013-02-03 07:35:00,
2013-02-03 02:40:00,8.6,4.0,29.99,NW,313,0.0,-999.0,86,-99.99,,,0.00,ADS-WS1 bash script,2013-02-03 07:40:00,
2013-02-03 02:45:00,8.6,4.0,30.00,NW,313,0.0,-999.0,85,-99.99,,,0.00,ADS-WS1 bash script,2013-02-03 07:45:00,
2013-02-03 02:50:00,8.6,5.0,29.99,NW,313,0.0,-999.0,87,-99.99,,,0.00,ADS-WS1 bash script,2013-02-03 07:50:00,
2013-02-03 02:55:00,8.4,3.0,29.99,NW,313,0.0,-999.0,86,-99.99,,,0.00,ADS-WS1 bash script,2013-02-03 07:55:00,
2013-02-03 03:05:00,8.6,5.0,29.99,NW,307,1.0,-999.0,87,-99.99,,,0.00,ADS-WS1 bash script,2013-02-03 08:05:00,
2013-02-03 03:10:00,8.8,4.0,29.98,NW,313,0.0,-999.0,86,-99.99,,,0.00,ADS-WS1 bash script,2013-02-03 08:10:00,
2013-02-03 03:15:00,9.0,5.0,29.99,NW,313,0.0,-999.0,87,-99.99,,,0.00,ADS-WS1 bash script,2013-02-03 08:15:00,
2013-02-03 03:20:00,9.0,4.0,29.98,NW,313,0.0,-999.0,86,-99.99,,,0.00,ADS-WS1 bash script,2013-02-03 08:20:00,
2013-02-03 03:25:00,9.3,5.0,29.98,NW,313,0.0,-999.0,87,-99.99,,,0.00,ADS-WS1 bash script,2013-02-03 08:25:00,
2013-02-03 03:30:00,9.7,6.0,29.98,NW,309,1.0,-999.0,88,-99.99,,,0.00,ADS-WS1 bash script,2013-02-03 08:30:00,
2013-02-03 03:35:00,9.8,5.0,29.97,NW,313,0.0,-999.0,86,-99.99,,,0.00,ADS-WS1 bash script,2013-02-03 08:35:00,
2013-02-03 03:45:00,10.4,5.0,29.96,NW,307,0.0,-999.0,86,-99.99,,,0.00,ADS-WS1 bash script,2013-02-03 08:45:00,
2013-02-03 03:50:00,10.4,5.0,29.96,NW,313,0.0,-999.0,85,-99.99,,,0.00,ADS-WS1 bash script,2013-02-03 08:50:00,
2013-02-03 03:55:00,10.4,5.0,29.96,NW,313,0.0,-999.0,85,-99.99,,,0.00,ADS-WS1 bash script,2013-02-03 08:55:00,
2013-02-03 04:00:00,10.2,5.0,29.96,NW,313,0.0,-999.0,86,-99.99,,,0.00,ADS-WS1 bash script,2013-02-03 09:00:00,
2013-02-03 04:05:00,10.0,5.0,29.96,NW,313,0.0,-999.0,84,-99.99,,,0.00,ADS-WS1 bash script,2013-02-03 09:05:00,
2013-02-03 04:10:00,9.7,5.0,29.96,NW,313,0.0,-999.0,85,-99.99,,,0.00,ADS-WS1 bash script,2013-02-03 09:10:00,
2013-02-03 04:15:00,9.3,4.0,29.96,NW,313,0.0,-999.0,85,-99.99,,,0.00,ADS-WS1 bash script,2013-02-03 09:15:00,
2013-02-03 04:20:00,8.8,4.0,29.96,NW,313,0.0,-999.0,86,-99.99,,,0.00,ADS-WS1 bash script,2013-02-03 09:20:00,
2013-02-03 04:25:00,8.4,3.0,29.96,North,350,0.0,-999.0,84,-99.99,,,0.00,ADS-WS1 bash script,2013-02-03 09:25:00,
2013-02-03 04:30:00,8.1,3.0,29.96,NW,313,0.0,-999.0,85,-99.99,,,0.00,ADS-WS1 bash script,2013-02-03 09:30:00,
2013-02-03 04:35:00,7.7,3.0,29.96,NW,313,0.0,-999.0,86,-99.99,,,0.00,ADS-WS1 bash script,2013-02-03 09:35:00,
2013-02-03 04:40:00,7.3,2.0,29.96,NW,313,0.0,-999.0,86,-99.99,,,0.00,ADS-WS1 bash script,2013-02-03 09:40:00,
2013-02-03 04:50:00,6.8,2.0,29.96,NW,313,0.0,-999.0,86,-99.99,,,0.00,ADS-WS1 bash script,2013-02-03 09:50:00,
2013-02-03 04:55:00,6.6,2.0,29.96,NW,309,0.0,-999.0,85,-99.99,,,0.00,ADS-WS1 bash script,2013-02-03 09:55:00,
2013-02-03 05:00:00,6.3,1.0,29.96,NW,313,0.0,-999.0,85,-99.99,,,0.00,ADS-WS1 bash script,2013-02-03 10:00:00,
2013-02-03 05:10:00,5.9,1.0,29.96,NW,313,0.0,-999.0,85,-99.99,,,0.00,ADS-WS1 bash script,2013-02-03 10:10:00,
2013-02-03 05:15:00,5.5,1.0,29.96,NW,313,0.0,-999.0,85,-99.99,,,0.00,ADS-WS1 bash script,2013-02-03 10:15:00,
2013-02-03 05:20:00,5.5,1.0,29.96,NW,313,0.0,-999.0,86,-99.99,,,0.00,ADS-WS1 bash script,2013-02-03 10:20:00,
2013-02-03 05:25:00,5.4,0.0,29.96,NW,313,0.0,-999.0,86,-99.99,,,0.00,ADS-WS1 bash script,2013-02-03 10:25:00,
2013-02-03 05:30:00,5.2,1.0,29.95,NW,313,0.0,-999.0,87,-99.99,,,0.00,ADS-WS1 bash script,2013-02-03 10:30:00,
2013-02-03 05:35:00,5.2,1.0,29.96,NW,313,0.0,-999.0,87,-99.99,,,0.00,ADS-WS1 bash script,2013-02-03 10:35:00,
2013-02-03 05:40:00,5.0,0.0,29.96,NW,313,1.0,-999.0,85,-99.99,,,0.00,ADS-WS1 bash script,2013-02-03 10:40:00,
2013-02-03 05:50:00,5.0,0.0,29.96,NW,313,0.0,-999.0,86,-99.99,,,0.00,ADS-WS1 bash script,2013-02-03 10:50:00,
2013-02-03 05:55:00,5.0,1.0,29.96,NW,313,0.0,-999.0,87,-99.99,,,0.00,ADS-WS1 bash script,2013-02-03 10:55:00,
2013-02-03 06:00:00,5.0,0.0,29.95,North,0,1.0,-999.0,85,-99.99,,,0.00,ADS-WS1 bash script,2013-02-03 11:00:00,
2013-02-03 06:05:00,5.2,1.0,29.95,NW,313,0.0,-999.0,87,-99.99,,,0.00,ADS-WS1 bash script,2013-02-03 11:05:00,
2013-02-03 06:10:00,5.4,0.0,29.96,NW,313,0.0,-999.0,86,-99.99,,,0.00,ADS-WS1 bash script,2013-02-03 11:10:00,
2013-02-03 06:20:00,5.9,2.0,29.96,NW,313,1.0,-999.0,88,-99.99,,,0.00,ADS-WS1 bash script,2013-02-03 11:20:00,
2013-02-03 06:25:00,6.3,2.0,29.95,NW,313,0.0,-999.0,87,-99.99,,,0.00,ADS-WS1 bash script,2013-02-03 11:25:00,
2013-02-03 06:30:00,6.6,3.0,29.95,NW,313,1.0,-999.0,87,-99.99,,,0.00,ADS-WS1 bash script,2013-02-03 11:30:00,
2013-02-03 06:35:00,7.3,3.0,29.95,NW,313,1.0,-999.0,87,-99.99,,,0.00,ADS-WS1 bash script,2013-02-03 11:35:00,
2013-02-03 06:40:00,7.9,4.0,29.94,NW,313,1.0,-999.0,88,-99.99,,,0.00,ADS-WS1 bash script,2013-02-03 11:40:00,
2013-02-03 06:45:00,8.4,5.0,29.94,NW,313,0.0,-999.0,89,-99.99,,,0.00,ADS-WS1 bash script,2013-02-03 11:45:00,
2013-02-03 06:50:00,9.0,5.0,29.94,NNW,347,2.0,-999.0,88,-99.99,,,0.00,ADS-WS1 bash script,2013-02-03 11:50:00,
2013-02-03 06:55:00,9.3,5.0,29.93,NW,324,1.0,-999.0,88,-99.99,,,0.00,ADS-WS1 bash script,2013-02-03 11:55:00,
2013-02-03 07:00:00,9.7,6.0,29.94,NNW,347,0.0,-999.0,87,-99.99,,,0.00,ADS-WS1 bash script,2013-02-03 12:00:00,
2013-02-03 07:05:00,9.8,7.0,29.94,NNW,328,0.0,-999.0,89,-99.99,,,0.00,ADS-WS1 bash script,2013-02-03 12:05:00,
2013-02-03 07:15:00,10.0,5.0,29.93,NW,313,0.0,-999.0,86,-99.99,,,0.00,ADS-WS1 bash script,2013-02-03 12:15:00,
2013-02-03 07:20:00,10.2,5.0,29.93,NW,313,0.0,-999.0,86,-99.99,,,0.00,ADS-WS1 bash script,2013-02-03 12:20:00,
2013-02-03 07:25:00,10.4,6.0,29.94,North,0,2.0,-999.0,87,-99.99,,,0.00,ADS-WS1 bash script,2013-02-03 12:25:00,
2013-02-03 07:30:00,10.4,6.0,29.94,North,0,1.0,-999.0,87,-99.99,,,0.00,ADS-WS1 bash script,2013-02-03 12:30:00,
2013-02-03 07:40:00,10.2,5.0,29.94,NW,317,2.0,-999.0,85,-99.99,,,0.00,ADS-WS1 bash script,2013-02-03 12:40:00,
2013-02-03 07:45:00,10.4,5.0,29.94,North,0,0.0,-999.0,85,-99.99,,,0.00,ADS-WS1 bash script,2013-02-03 12:45:00,
2013-02-03 07:50:00,10.4,5.0,29.94,NNW,335,1.0,-999.0,84,-99.99,,,0.00,ADS-WS1 bash script,2013-02-03 12:50:00,
2013-02-03 07:55:00,10.2,5.0,29.94,NW,313,0.0,-999.0,86,-99.99,,,0.00,ADS-WS1 bash script,2013-02-03 12:55:00,
2013-02-03 08:00:00,10.0,5.0,29.94,NW,313,2.0,-999.0,84,-99.99,,,0.00,ADS-WS1 bash script,2013-02-03 13:00:00,
2013-02-03 08:05:00,10.0,5.0,29.94,West,273,0.0,-999.0,85,-99.99,,,0.00,ADS-WS1 bash script,2013-02-03 13:05:00,
2013-02-03 08:10:00,10.0,5.0,29.94,North,0,1.0,-999.0,84,-99.99,,,0.00,ADS-WS1 bash script,2013-02-03 13:10:00,
2013-02-03 08:15:00,10.0,5.0,29.94,North,354,0.0,-999.0,84,-99.99,,,0.00,ADS-WS1 bash script,2013-02-03 13:15:00,
2013-02-03 08:20:00,10.4,5.0,29.94,NW,306,0.0,-999.0,84,-99.99,,,0.00,ADS-WS1 bash script,2013-02-03 13:20:00,
2013-02-03 08:25:00,10.6,6.0,29.94,NW,313,0.0,-999.0,85,-99.99,,,0.00,ADS-WS1 bash script,2013-02-03 13:25:00,
2013-02-03 08:30:00,10.9,6.0,29.94,NW,309,1.0,-999.0,84,-99.99,,,0.00,ADS-WS1 bash script,2013-02-03 13:30:00,
2013-02-03 08:35:00,11.1,6.0,29.93,NW,313,2.0,-999.0,85,-99.99,,,0.00,ADS-WS1 bash script,2013-02-03 13:35:00,
2013-02-03 08:40:00,11.3,6.0,29.93,WNW,296,0.0,-999.0,84,-99.99,,,0.00,ADS-WS1 bash script,2013-02-03 13:40:00,
2013-02-03 08:45:00,11.5,7.0,29.93,WNW,293,1.0,-999.0,84,-99.99,,,0.00,ADS-WS1 bash script,2013-02-03 13:45:00,
2013-02-03 08:50:00,11.6,6.0,29.93,NW,313,2.0,-999.0,82,-99.99,,,0.00,ADS-WS1 bash script,2013-02-03 13:50:00,
2013-02-03 08:55:00,11.8,6.0,29.94,NW,313,2.0,-999.0,83,-99.99,,,0.00,ADS-WS1 bash script,2013-02-03 13:55:00,
2013-02-03 09:00:00,12.0,6.0,29.93,NW,307,1.0,-999.0,83,-99.99,,,0.00,ADS-WS1 bash script,2013-02-03 14:00:00,
2013-02-03 09:05:00,12.2,6.0,29.94,NW,313,2.0,-999.0,81,-99.99,,,0.00,ADS-WS1 bash script,2013-02-03 14:05:00,
2013-02-03 09:10:00,12.4,6.0,29.94,NW,313,3.0,-999.0,82,-99.99,,,0.00,ADS-WS1 bash script,2013-02-03 14:10:00,
2013-02-03 09:15:00,12.2,5.0,29.94,NW,319,2.0,-999.0,80,-99.99,,,0.00,ADS-WS1 bash script,2013-02-03 14:15:00,
2013-02-03 09:20:00,12.4,5.0,29.94,NW,313,2.0,-999.0,80,-99.99,,,0.00,ADS-WS1 bash script,2013-02-03 14:20:00,
2013-02-03 09:25:00,12.5,5.0,29.95,NW,313,2.0,-999.0,80,-99.99,,,0.00,ADS-WS1 bash script,2013-02-03 14:25:00,
2013-02-03 09:30:00,12.5,5.0,29.94,NW,317,2.0,-999.0,79,-99.99,,,0.00,ADS-WS1 bash script,2013-02-03 14:30:00,
2013-02-03 09:35:00,13.1,6.0,29.94,NW,304,2.0,-999.0,80,-99.99,,,0.00,ADS-WS1 bash script,2013-02-03 14:35:00,
2013-02-03 09:40:00,13.6,7.0,29.94,NW,313,2.0,-999.0,79,-99.99,,,0.00,ADS-WS1 bash script,2013-02-03 14:40:00,
2013-02-03 09:45:00,14.2,7.0,29.94,WNW,303,0.0,-999.0,79,-99.99,,,0.00,ADS-WS1 bash script,2013-02-03 14:45:00,
2013-02-03 09:50:00,14.5,7.0,29.93,West,268,2.0,-999.0,80,-99.99,,,0.00,ADS-WS1 bash script,2013-02-03 14:50:00,
2013-02-03 09:55:00,15.1,8.0,29.93,NW,313,0.0,-999.0,79,-99.99,,,0.00,ADS-WS1 bash script,2013-02-03 14:55:00,
2013-02-03 10:00:00,15.4,8.0,29.93,NW,304,2.0,-999.0,78,-99.99,,,0.00,ADS-WS1 bash script,2013-02-03 15:00:00,
2013-02-03 10:05:00,15.6,9.0,29.93,NW,313,5.0,-999.0,78,-99.99,,,0.00,ADS-WS1 bash script,2013-02-03 15:05:00,
2013-02-03 10:15:00,16.0,8.0,29.92,West,268,5.0,-999.0,77,-99.99,,,0.00,ADS-WS1 bash script,2013-02-03 15:15:00,
2013-02-03 10:20:00,16.0,8.0,29.92,West,268,3.0,-999.0,77,-99.99,,,0.00,ADS-WS1 bash script,2013-02-03 15:20:00,
2013-02-03 10:25:00,16.0,8.0,29.92,NW,313,2.0,-999.0,77,-99.99,,,0.00,ADS-WS1 bash script,2013-02-03 15:25:00,
2013-02-03 10:30:00,16.5,8.0,29.92,SW,228,1.0,-999.0,77,-99.99,,,0.00,ADS-WS1 bash script,2013-02-03 15:30:00,
2013-02-03 10:35:00,17.0,8.0,29.92,NNW,341,5.0,-999.0,75,-99.99,,,0.00,ADS-WS1 bash script,2013-02-03 15:35:00,
2013-02-03 10:45:00,17.8,9.0,29.92,WSW,251,6.0,-999.0,73,-99.99,,,0.00,ADS-WS1 bash script,2013-02-03 15:45:00,
2013-02-03 10:50:00,18.1,8.0,29.92,NW,313,2.0,-999.0,71,-99.99,,,0.00,ADS-WS1 bash script,2013-02-03 15:50:00,
2013-02-03 10:55:00,18.5,9.0,29.91,NW,313,5.0,-999.0,73,-99.99,,,0.00,ADS-WS1 bash script,2013-02-03 15:55:00,
2013-02-03 11:00:00,19.0,9.0,29.91,West,268,4.0,-999.0,72,-99.99,,,0.00,ADS-WS1 bash script,2013-02-03 16:00:00,
2013-02-03 11:05:00,19.2,9.0,29.91,NW,326,3.0,-999.0,72,-99.99,,,0.00,ADS-WS1 bash script,2013-02-03 16:05:00,
2013-02-03 11:15:00,19.6,10.0,29.91,West,268,5.0,-999.0,70,-99.99,,,0.00,ADS-WS1 bash script,2013-02-03 16:15:00,
2013-02-03 11:20:00,19.9,10.0,29.91,WNW,290,2.0,-999.0,70,-99.99,,,0.00,ADS-WS1 bash script,2013-02-03 16:20:00,
2013-02-03 11:25:00,20.1,9.0,29.91,SW,224,2.0,-999.0,69,-99.99,,,0.00,ADS-WS1 bash script,2013-02-03 16:25:00,
2013-02-03 11:30:00,20.3,9.0,29.90,NW,313,2.0,-999.0,69,-99.99,,,0.00,ADS-WS1 bash script,2013-02-03 16:30:00,
2013-02-03 11:35:00,20.1,9.0,29.90,West,273,6.0,-999.0,69,-99.99,,,0.00,ADS-WS1 bash script,2013-02-03 16:35:00,
2013-02-03 11:40:00,20.1,10.0,29.91,NW,313,8.0,-999.0,70,-99.99,,,0.00,ADS-WS1 bash script,2013-02-03 16:40:00,
2013-02-03 11:45:00,20.5,10.0,29.91,NW,313,5.0,-999.0,70,-99.99,,,0.00,ADS-WS1 bash script,2013-02-03 16:45:00,
2013-02-03 11:50:00,20.5,10.0,29.91,West,268,6.0,-999.0,70,-99.99,,,0.00,ADS-WS1 bash script,2013-02-03 16:50:00,
2013-02-03 11:55:00,20.8,11.0,29.90,NNW,328,5.0,-999.0,70,-99.99,,,0.00,ADS-WS1 bash script,2013-02-03 16:55:00,
2013-02-03 12:00:00,21.2,10.0,29.90,WSW,245,5.0,-999.0,69,-99.99,,,0.00,ADS-WS1 bash script,2013-02-03 17:00:00,
2013-02-03 12:05:00,20.8,11.0,29.90,NW,313,3.0,-999.0,70,-99.99,,,0.00,ADS-WS1 bash script,2013-02-03 17:05:00,
2013-02-03 12:10:00,20.8,11.0,29.89,WSW,256,3.0,-999.0,71,-99.99,,,1.00,ADS-WS1 bash script,2013-02-03 17:10:00,
2013-02-03 12:15:00,21.3,11.0,29.89,West,268,4.0,-999.0,70,-99.99,,,1.00,ADS-WS1 bash script,2013-02-03 17:15:00,
2013-02-03 12:20:00,21.5,12.0,29.88,SW,228,8.0,-999.0,70,-99.99,,,1.00,ADS-WS1 bash script,2013-02-03 17:20:00,
2013-02-03 12:25:00,21.9,12.0,29.88,West,268,2.0,-999.0,70,-99.99,,,1.00,ADS-WS1 bash script,2013-02-03 17:25:00,
2013-02-03 12:30:00,21.9,12.0,29.88,West,268,5.0,-999.0,70,-99.99,,,1.00,ADS-WS1 bash script,2013-02-03 17:30:00,
2013-02-03 12:35:00,22.2,12.0,29.88,West,268,5.0,-999.0,70,-99.99,,,3.00,ADS-WS1 bash script,2013-02-03 17:35:00,
2013-02-03 12:45:00,22.4,11.0,29.88,West,262,4.0,-999.0,69,-99.99,,,3.00,ADS-WS1 bash script,2013-02-03 17:45:00,
2013-02-03 12:50:00,22.8,12.0,29.88,WSW,241,4.0,-999.0,69,-99.99,,,4.00,ADS-WS1 bash script,2013-02-03 17:50:00,
2013-02-03 12:55:00,23.0,12.0,29.87,West,259,6.0,-999.0,68,-99.99,,,4.00,ADS-WS1 bash script,2013-02-03 17:55:00,
2013-02-03 13:00:00,23.0,12.0,29.87,West,259,3.0,-999.0,69,-99.99,,,4.00,ADS-WS1 bash script,2013-02-03 18:00:00,
2013-02-03 13:05:00,23.5,13.0,29.87,WNW,285,6.0,-999.0,68,-99.99,,,4.00,ADS-WS1 bash script,2013-02-03 18:05:00,
2013-02-03 13:10:00,23.9,13.0,29.87,West,268,7.0,-999.0,68,-99.99,,,4.00,ADS-WS1 bash script,2013-02-03 18:10:00,
2013-02-03 13:15:00,23.7,13.0,29.87,WSW,255,6.0,-999.0,68,-99.99,,,4.00,ADS-WS1 bash script,2013-02-03 18:15:00,
2013-02-03 13:20:00,23.7,13.0,29.87,NW,313,6.0,-999.0,68,-99.99,,,4.00,ADS-WS1 bash script,2013-02-03 18:20:00,
2013-02-03 13:25:00,23.3,12.0,29.87,SW,232,3.0,-999.0,68,-99.99,,,4.00,ADS-WS1 bash script,2013-02-03 18:25:00,
2013-02-03 13:30:00,23.1,13.0,29.87,West,268,3.0,-999.0,70,-99.99,,,4.00,ADS-WS1 bash script,2013-02-03 18:30:00,
2013-02-03 13:40:00,23.0,13.0,29.86,WSW,245,5.0,-999.0,70,-99.99,,,4.00,ADS-WS1 bash script,2013-02-03 18:40:00,
2013-02-03 13:45:00,23.0,13.0,29.86,SW,227,4.0,-999.0,70,-99.99,,,4.00,ADS-WS1 bash script,2013-02-03 18:45:00,
2013-02-03 13:50:00,23.1,13.0,29.86,SW,235,4.0,-999.0,70,-99.99,,,4.00,ADS-WS1 bash script,2013-02-03 18:50:00,
2013-02-03 13:55:00,23.3,13.0,29.87,WSW,254,10.0,-999.0,71,-99.99,,,4.00,ADS-WS1 bash script,2013-02-03 18:55:00,
2013-02-03 14:00:00,23.3,13.0,29.87,WNW,290,4.0,-999.0,71,-99.99,,,4.00,ADS-WS1 bash script,2013-02-03 19:00:00,
2013-02-03 14:05:00,23.7,14.0,29.86,WSW,245,7.0,-999.0,70,-99.99,,,4.00,ADS-WS1 bash script,2013-02-03 19:05:00,
2013-02-03 14:10:00,23.7,14.0,29.86,SW,232,4.0,-999.0,71,-99.99,,,4.00,ADS-WS1 bash script,2013-02-03 19:10:00,
2013-02-03 14:15:00,23.7,14.0,29.86,NW,304,2.0,-999.0,70,-99.99,,,4.00,ADS-WS1 bash script,2013-02-03 19:15:00,
2013-02-03 14:20:00,23.9,14.0,29.86,WSW,245,8.0,-999.0,70,-99.99,,,4.00,ADS-WS1 bash script,2013-02-03 19:20:00,
2013-02-03 14:25:00,23.9,14.0,29.86,West,268,8.0,-999.0,71,-99.99,,,4.00,ADS-WS1 bash script,2013-02-03 19:25:00,
2013-02-03 14:30:00,23.9,14.0,29.85,NW,313,8.0,-999.0,72,-99.99,,,4.00,ADS-WS1 bash script,2013-02-03 19:30:00,
2013-02-03 14:35:00,23.9,14.0,29.85,West,268,6.0,-999.0,70,-99.99,,,5.00,ADS-WS1 bash script,2013-02-03 19:35:00,
2013-02-03 14:45:00,24.2,14.0,29.85,WSW,245,3.0,-999.0,70,-99.99,,,5.00,ADS-WS1 bash script,2013-02-03 19:45:00,
2013-02-03 14:50:00,24.4,13.0,29.85,West,268,7.0,-999.0,69,-99.99,,,5.00,ADS-WS1 bash script,2013-02-03 19:50:00,
2013-02-03 14:55:00,24.4,14.0,29.86,WNW,283,2.0,-999.0,70,-99.99,,,5.00,ADS-WS1 bash script,2013-02-03 19:55:00,
2013-02-03 15:00:00,24.2,13.0,29.85,West,268,7.0,-999.0,69,-99.99,,,5.00,ADS-WS1 bash script,2013-02-03 20:00:00,
2013-02-03 15:05:00,24.2,14.0,29.86,WSW,255,8.0,-999.0,70,-99.99,,,5.00,ADS-WS1 bash script,2013-02-03 20:05:00,
2013-02-03 15:15:00,24.0,15.0,29.86,WNW,302,6.0,-999.0,73,-99.99,,,5.00,ADS-WS1 bash script,2013-02-03 20:15:00,
2013-02-03 15:20:00,24.0,15.0,29.87,West,268,2.0,-999.0,73,-99.99,,,5.00,ADS-WS1 bash script,2013-02-03 20:20:00,
2013-02-03 15:25:00,23.9,15.0,29.87,West,279,6.0,-999.0,74,-99.99,,,5.00,ADS-WS1 bash script,2013-02-03 20:25:00,
2013-02-03 15:35:00,24.0,14.0,29.87,NW,304,5.0,-999.0,71,-99.99,,,5.00,ADS-WS1 bash script,2013-02-03 20:35:00,
2013-02-03 15:40:00,24.0,14.0,29.88,NW,313,1.0,-999.0,71,-99.99,,,0.00,ADS-WS1 bash script,2013-02-03 20:40:00,
2013-02-03 15:45:00,24.0,14.0,29.87,WNW,290,6.0,-999.0,72,-99.99,,,0.00,ADS-WS1 bash script,2013-02-03 20:45:00,
2013-02-03 15:50:00,23.9,14.0,29.87,West,279,6.0,-999.0,71,-99.99,,,0.00,ADS-WS1 bash script,2013-02-03 20:50:00,
2013-02-03 15:55:00,23.9,15.0,29.88,West,268,4.0,-999.0,73,-99.99,,,0.00,ADS-WS1 bash script,2013-02-03 20:55:00,
2013-02-03 16:00:00,24.0,15.0,29.88,West,279,5.0,-999.0,74,-99.99,,,0.00,ADS-WS1 bash script,2013-02-03 21:00:00,
2013-02-03 16:05:00,23.9,15.0,29.88,NW,313,2.0,-999.0,74,-99.99,,,0.00,ADS-WS1 bash script,2013-02-03 21:05:00,
2013-02-03 16:10:00,23.9,15.0,29.88,WNW,283,7.0,-999.0,75,-99.99,,,0.00,ADS-WS1 bash script,2013-02-03 21:10:00,
2013-02-03 16:15:00,23.5,16.0,29.88,WNW,290,4.0,-999.0,77,-99.99,,,0.00,ADS-WS1 bash script,2013-02-03 21:15:00,
2013-02-03 16:25:00,23.1,16.0,29.88,NW,323,6.0,-999.0,80,-99.99,,,0.00,ADS-WS1 bash script,2013-02-03 21:25:00,
2013-02-03 16:30:00,23.0,17.0,29.88,NW,316,6.0,-999.0,82,-99.99,,,0.00,ADS-WS1 bash script,2013-02-03 21:30:00,
2013-02-03 16:40:00,23.0,16.0,29.88,WNW,300,16.0,-999.0,79,-99.99,,,0.00,ADS-WS1 bash script,2013-02-03 21:40:00,
2013-02-03 16:45:00,23.0,16.0,29.88,West,272,6.0,-999.0,80,-99.99,,,0.00,ADS-WS1 bash script,2013-02-03 21:45:00,
2013-02-03 16:50:00,23.0,15.0,29.89,WNW,303,5.0,-999.0,77,-99.99,,,0.00,ADS-WS1 bash script,2013-02-03 21:50:00,
2013-02-03 16:55:00,23.1,15.0,29.89,WNW,300,7.0,-999.0,77,-99.99,,,0.00,ADS-WS1 bash script,2013-02-03 21:55:00,
2013-02-03 17:00:00,23.1,16.0,29.89,NW,313,7.0,-999.0,78,-99.99,,,0.00,ADS-WS1 bash script,2013-02-03 22:00:00,
2013-02-03 17:05:00,23.1,15.0,29.89,NW,313,3.0,-999.0,77,-99.99,,,0.00,ADS-WS1 bash script,2013-02-03 22:05:00,
2013-02-03 17:10:00,23.1,16.0,29.90,WNW,282,9.0,-999.0,78,-99.99,,,0.00,ADS-WS1 bash script,2013-02-03 22:10:00,
2013-02-03 17:15:00,23.1,16.0,29.90,NW,320,6.0,-999.0,79,-99.99,,,0.00,ADS-WS1 bash script,2013-02-03 22:15:00,
2013-02-03 17:20:00,23.1,16.0,29.90,NNW,330,5.0,-999.0,79,-99.99,,,0.00,ADS-WS1 bash script,2013-02-03 22:20:00,
2013-02-03 17:25:00,23.0,16.0,29.90,NW,307,7.0,-999.0,79,-99.99,,,0.00,ADS-WS1 bash script,2013-02-03 22:25:00,
2013-02-03 17:30:00,22.8,16.0,29.90,WNW,293,9.0,-999.0,78,-99.99,,,0.00,ADS-WS1 bash script,2013-02-03 22:30:00,
2013-02-03 17:40:00,22.4,15.0,29.91,NW,304,11.0,-999.0,78,-99.99,,,0.00,ADS-WS1 bash script,2013-02-03 22:40:00,
2013-02-03 17:45:00,22.2,14.0,29.91,WNW,282,4.0,-999.0,77,-99.99,,,0.00,ADS-WS1 bash script,2013-02-03 22:45:00,
2013-02-03 17:50:00,22.2,14.0,29.91,WNW,290,4.0,-999.0,76,-99.99,,,0.00,ADS-WS1 bash script,2013-02-03 22:50:00,
2013-02-03 17:55:00,22.1,14.0,29.91,WNW,296,5.0,-999.0,76,-99.99,,,0.00,ADS-WS1 bash script,2013-02-03 22:55:00,
2013-02-03 18:00:00,21.9,13.0,29.91,WNW,285,9.0,-999.0,74,-99.99,,,0.00,ADS-WS1 bash script,2013-02-03 23:00:00,
2013-02-03 18:05:00,21.9,13.0,29.91,NW,313,5.0,-999.0,74,-99.99,,,0.00,ADS-WS1 bash script,2013-02-03 23:05:00,
2013-02-03 18:10:00,21.7,12.0,29.92,NW,313,10.0,-999.0,72,-99.99,,,0.00,ADS-WS1 bash script,2013-02-03 23:10:00,
2013-02-03 18:15:00,21.9,13.0,29.93,WNW,296,6.0,-999.0,74,-99.99,,,0.00,ADS-WS1 bash script,2013-02-03 23:15:00,
2013-02-03 18:20:00,21.7,14.0,29.92,WNW,283,5.0,-999.0,76,-99.99,,,0.00,ADS-WS1 bash script,2013-02-03 23:20:00,
2013-02-03 18:25:00,21.5,15.0,29.93,NW,323,4.0,-999.0,78,-99.99,,,0.00,ADS-WS1 bash script,2013-02-03 23:25:00,
2013-02-03 18:30:00,21.5,14.0,29.93,NW,323,3.0,-999.0,77,-99.99,,,0.00,ADS-WS1 bash script,2013-02-03 23:30:00,
2013-02-03 18:35:00,21.5,14.0,29.94,NNW,343,2.0,-999.0,77,-99.99,,,0.00,ADS-WS1 bash script,2013-02-03 23:35:00,
2013-02-03 18:40:00,21.3,13.0,29.93,NNW,343,11.0,-999.0,76,-99.99,,,0.00,ADS-WS1 bash script,2013-02-03 23:40:00,
2013-02-03 18:45:00,21.2,12.0,29.94,NNW,333,8.0,-999.0,75,-99.99,,,0.00,ADS-WS1 bash script,2013-02-03 23:45:00,
2013-02-03 18:50:00,21.2,12.0,29.94,NNW,333,4.0,-999.0,73,-99.99,,,0.00,ADS-WS1 bash script,2013-02-03 23:50:00,
2013-02-03 18:55:00,21.0,12.0,29.94,North,9,6.0,-999.0,73,-99.99,,,0.00,ADS-WS1 bash script,2013-02-03 23:55:00,
2013-02-03 19:00:00,21.0,11.0,29.94,NW,306,6.0,-999.0,72,-99.99,,,0.00,ADS-WS1 bash script,2013-02-04 00:00:00,
2013-02-03 19:05:00,20.8,12.0,29.95,NW,324,9.0,-999.0,74,-99.99,,,0.00,ADS-WS1 bash script,2013-02-04 00:05:00,
2013-02-03 19:10:00,20.8,11.0,29.95,NW,313,9.0,-999.0,71,-99.99,,,0.00,ADS-WS1 bash script,2013-02-04 00:10:00,
2013-02-03 19:15:00,20.8,11.0,29.95,WNW,295,12.0,-999.0,72,-99.99,,,0.00,ADS-WS1 bash script,2013-02-04 00:15:00,
2013-02-03 19:20:00,20.8,11.0,29.95,NNW,335,6.0,-999.0,70,-99.99,,,0.00,ADS-WS1 bash script,2013-02-04 00:20:00,
2013-02-03 19:25:00,20.8,12.0,29.95,NW,323,5.0,-999.0,73,-99.99,,,0.00,ADS-WS1 bash script,2013-02-04 00:25:00,
2013-02-03 19:30:00,20.8,10.0,29.96,NNW,327,5.0,-999.0,69,-99.99,,,0.00,ADS-WS1 bash script,2013-02-04 00:30:00,
2013-02-03 19:35:00,20.6,11.0,29.96,NW,323,7.0,-999.0,71,-99.99,,,0.00,ADS-WS1 bash script,2013-02-04 00:35:00,
2013-02-03 19:40:00,20.6,11.0,29.96,WNW,299,10.0,-999.0,70,-99.99,,,0.00,ADS-WS1 bash script,2013-02-04 00:40:00,
2013-02-03 19:50:00,20.3,9.0,29.96,WNW,293,24.0,-999.0,69,-99.99,,,0.00,ADS-WS1 bash script,2013-02-04 00:50:00,
2013-02-03 19:55:00,20.1,9.0,29.97,NW,310,10.0,-999.0,67,-99.99,,,0.00,ADS-WS1 bash script,2013-02-04 00:55:00,
2013-02-03 20:00:00,19.7,8.0,29.97,NW,313,15.0,-999.0,65,-99.99,,,0.00,ADS-WS1 bash script,2013-02-04 01:00:00,
2013-02-03 20:05:00,19.6,8.0,29.98,NW,316,10.0,-999.0,64,-99.99,,,0.00,ADS-WS1 bash script,2013-02-04 01:05:00,
2013-02-03 20:10:00,19.2,6.0,29.97,North,0,8.0,-999.0,62,-99.99,,,0.00,ADS-WS1 bash script,2013-02-04 01:10:00,
2013-02-03 20:15:00,19.2,7.0,29.98,NNW,337,4.0,-999.0,64,-99.99,,,0.00,ADS-WS1 bash script,2013-02-04 01:15:00,
2013-02-03 20:20:00,19.0,7.0,29.99,NW,313,10.0,-999.0,64,-99.99,,,0.00,ADS-WS1 bash script,2013-02-04 01:20:00,
2013-02-03 20:25:00,19.0,6.0,29.98,NNW,343,12.0,-999.0,63,-99.99,,,0.00,ADS-WS1 bash script,2013-02-04 01:25:00,
2013-02-03 20:30:00,19.0,6.0,29.99,NNW,348,4.0,-999.0,63,-99.99,,,0.00,ADS-WS1 bash script,2013-02-04 01:30:00,
2013-02-03 20:35:00,19.0,6.0,29.99,NW,306,3.0,-999.0,62,-99.99,,,0.00,ADS-WS1 bash script,2013-02-04 01:35:00,
2013-02-03 20:40:00,19.0,6.0,29.99,NW,313,7.0,-999.0,63,-99.99,,,0.00,ADS-WS1 bash script,2013-02-04 01:40:00,
2013-02-03 20:45:00,19.0,7.0,29.99,NW,313,5.0,-999.0,64,-99.99,,,0.00,ADS-WS1 bash script,2013-02-04 01:45:00,
2013-02-03 20:50:00,18.8,6.0,29.99,WNW,290,6.0,-999.0,63,-99.99,,,0.00,ADS-WS1 bash script,2013-02-04 01:50:00,
2013-02-03 20:55:00,18.8,6.0,29.99,NNW,328,9.0,-999.0,62,-99.99,,,0.00,ADS-WS1 bash script,2013-02-04 01:55:00,
2013-02-03 21:00:00,18.8,6.0,29.99,NW,320,6.0,-999.0,63,-99.99,,,0.00,ADS-WS1 bash script,2013-02-04 02:00:00,
2013-02-03 21:05:00,18.8,5.0,30.00,NW,313,5.0,-999.0,60,-99.99,,,0.00,ADS-WS1 bash script,2013-02-04 02:05:00,
2013-02-03 21:10:00,18.7,5.0,30.00,North,4,6.0,-999.0,61,-99.99,,,0.00,ADS-WS1 bash script,2013-02-04 02:10:00,
2013-02-03 21:20:00,18.7,5.0,30.01,NNE,21,4.0,-999.0,61,-99.99,,,0.00,ADS-WS1 bash script,2013-02-04 02:20:00,
2013-02-03 21:25:00,18.7,5.0,30.00,NE,43,3.0,-999.0,61,-99.99,,,0.00,ADS-WS1 bash script,2013-02-04 02:25:00,
2013-02-03 21:30:00,18.7,5.0,30.00,NNW,335,7.0,-999.0,60,-99.99,,,0.00,ADS-WS1 bash script,2013-02-04 02:30:00,
2013-02-03 21:35:00,18.8,6.0,30.01,NW,313,6.0,-999.0,62,-99.99,,,0.00,ADS-WS1 bash script,2013-02-04 02:35:00,
2013-02-03 21:40:00,18.7,5.0,30.00,NNW,344,5.0,-999.0,61,-99.99,,,0.00,ADS-WS1 bash script,2013-02-04 02:40:00,
2013-02-03 21:50:00,18.7,5.0,30.01,North,0,4.0,-999.0,60,-99.99,,,0.00,ADS-WS1 bash script,2013-02-04 02:50:00,
2013-02-03 21:55:00,18.7,5.0,30.01,WNW,290,3.0,-999.0,61,-99.99,,,0.00,ADS-WS1 bash script,2013-02-04 02:55:00,
2013-02-03 22:00:00,18.7,5.0,30.00,NW,313,2.0,-999.0,61,-99.99,,,0.00,ADS-WS1 bash script,2013-02-04 03:00:00,
2013-02-03 22:05:00,18.7,5.0,30.00,NW,313,3.0,-999.0,61,-99.99,,,0.00,ADS-WS1 bash script,2013-02-04 03:05:00,
2013-02-03 22:10:00,18.7,6.0,30.01,NNW,330,3.0,-999.0,62,-99.99,,,0.00,ADS-WS1 bash script,2013-02-04 03:10:00,
2013-02-03 22:15:00,18.7,6.0,30.01,NNW,341,3.0,-999.0,63,-99.99,,,0.00,ADS-WS1 bash script,2013-02-04 03:15:00,
2013-02-03 22:20:00,18.7,5.0,30.01,NW,313,2.0,-999.0,61,-99.99,,,0.00,ADS-WS1 bash script,2013-02-04 03:20:00,
2013-02-03 22:30:00,18.7,6.0,30.01,North,0,7.0,-999.0,63,-99.99,,,0.00,ADS-WS1 bash script,2013-02-04 03:30:00,
2013-02-03 22:35:00,18.7,6.0,30.01,WNW,299,4.0,-999.0,62,-99.99,,,0.00,ADS-WS1 bash script,2013-02-04 03:35:00,
2013-02-03 22:40:00,18.7,6.0,30.02,NW,313,4.0,-999.0,62,-99.99,,,0.00,ADS-WS1 bash script,2013-02-04 03:40:00,
2013-02-03 22:45:00,18.7,7.0,30.01,WNW,290,6.0,-999.0,64,-99.99,,,0.00,ADS-WS1 bash script,2013-02-04 03:45:00,
2013-02-03 22:50:00,18.7,6.0,30.01,NW,313,2.0,-999.0,62,-99.99,,,0.00,ADS-WS1 bash script,2013-02-04 03:50:00,
2013-02-03 23:00:00,18.7,7.0,30.01,NW,309,7.0,-999.0,64,-99.99,,,0.00,ADS-WS1 bash script,2013-02-04 04:00:00,
2013-02-03 23:05:00,18.7,7.0,30.01,NNW,330,2.0,-999.0,64,-99.99,,,0.00,ADS-WS1 bash script,2013-02-04 04:05:00,
2013-02-03 23:10:00,18.7,7.0,30.01,NNW,328,3.0,-999.0,65,-99.99,,,0.00,ADS-WS1 bash script,2013-02-04 04:10:00,
2013-02-03 23:15:00,18.7,7.0,30.01,NW,313,5.0,-999.0,65,-99.99,,,0.00,ADS-WS1 bash script,2013-02-04 04:15:00,
2013-02-03 23:25:00,18.7,7.0,30.01,West,275,2.0,-999.0,66,-99.99,,,0.00,ADS-WS1 bash script,2013-02-04 04:25:00,
2013-02-03 23:30:00,18.7,7.0,30.01,NW,313,4.0,-999.0,65,-99.99,,,0.00,ADS-WS1 bash script,2013-02-04 04:30:00,
2013-02-03 23:35:00,18.7,7.0,30.01,West,268,2.0,-999.0,65,-99.99,,,0.00,ADS-WS1 bash script,2013-02-04 04:35:00,
2013-02-03 23:40:00,18.7,7.0,30.01,WNW,286,3.0,-999.0,66,-99.99,,,0.00,ADS-WS1 bash script,2013-02-04 04:40:00,
2013-02-03 23:50:00,18.7,8.0,30.01,NW,313,2.0,-999.0,67,-99.99,,,0.00,ADS-WS1 bash script,2013-02-04 04:50:00,